Time,TemperatureF,DewpointF,PressureIn,WindDirection,WindDirectionDegrees,WindSpeedMPH,WindSpeedGustMPH,Humidity,HourlyPrecipIn,Conditions,Clouds,dailyrainin,SolarRadiationWatts/m^2,SoftwareType,DateUTC
2013-01-16 00:03:00,54.0,53.0,-100.00,NE,48,1.0,6.0,96,0.00,,,0.05,0.000000,,2013-01-16 05:03:00,
2013-01-16 00:33:00,54.0,53.0,-100.00,ESE,106,1.0,4.0,97,0.00,,,0.05,0.000000,,2013-01-16 05:33:00,
2013-01-16 00:42:00,54.0,53.0,-100.00,ESE,106,1.0,4.0,97,0.00,,,0.05,0.000000,,2013-01-16 05:42:00,
2013-01-16 00:53:00,54.0,53.0,-100.00,ESE,106,1.0,4.0,97,0.00,,,0.05,0.000000,,2013-01-16 05:53:00,
2013-01-16 01:03:00,54.0,53.0,-100.00,ESE,106,1.0,4.0,97,0.00,,,0.05,0.000000,,2013-01-16 06:03:00,
2013-01-16 01:33:00,54.0,53.0,-100.00,NNE,14,0.0,3.0,97,0.00,,,0.05,0.000000,,2013-01-16 06:33:00,
2013-01-16 01:43:00,54.0,53.0,-100.00,NNE,14,0.0,3.0,97,0.00,,,0.05,0.000000,,2013-01-16 06:43:00,
2013-01-16 01:53:00,54.0,53.0,-100.00,NNE,14,0.0,3.0,97,0.00,,,0.05,0.000000,,2013-01-16 06:53:00,
2013-01-16 02:02:00,54.0,53.0,-100.00,NNE,14,0.0,3.0,97,0.00,,,0.05,0.000000,,2013-01-16 07:02:00,
2013-01-16 02:33:00,53.0,52.0,-100.00,NE,49,0.0,4.0,97,0.00,,,0.05,0.000000,,2013-01-16 07:33:00,
2013-01-16 02:42:00,53.0,52.0,-100.00,NE,49,0.0,4.0,97,0.00,,,0.05,0.000000,,2013-01-16 07:42:00,
2013-01-16 02:52:00,53.0,52.0,-100.00,NE,49,0.0,4.0,97,0.00,,,0.05,0.000000,,2013-01-16 07:52:00,
2013-01-16 03:03:00,53.0,52.0,-100.00,NE,49,0.0,4.0,97,0.00,,,0.05,0.000000,,2013-01-16 08:03:00,
2013-01-16 03:33:00,52.0,51.0,-100.00,East,99,1.0,2.0,97,0.01,,,0.06,0.000000,,2013-01-16 08:33:00,
2013-01-16 03:42:00,52.0,51.0,-100.00,East,99,1.0,2.0,97,0.01,,,0.06,0.000000,,2013-01-16 08:42:00,
2013-01-16 03:53:00,52.0,51.0,-100.00,East,99,1.0,2.0,97,0.01,,,0.06,0.000000,,2013-01-16 08:53:00,
2013-01-16 04:02:00,52.0,51.0,-100.00,East,99,1.0,2.0,97,0.01,,,0.06,0.000000,,2013-01-16 09:02:00,
2013-01-16 04:33:00,51.0,50.0,-100.00,NW,316,0.0,0.0,97,0.00,,,0.06,0.000000,,2013-01-16 09:33:00,
2013-01-16 04:43:00,51.0,50.0,-100.00,NW,316,0.0,0.0,97,0.00,,,0.06,0.000000,,2013-01-16 09:43:00,
2013-01-16 04:53:00,51.0,50.0,-100.00,NW,316,0.0,0.0,97,0.00,,,0.06,0.000000,,2013-01-16 09:53:00,
2013-01-16 05:02:00,51.0,50.0,-100.00,NW,316,0.0,0.0,97,0.00,,,0.06,0.000000,,2013-01-16 10:02:00,
2013-01-16 05:33:00,60.0,59.0,-100.00,SSW,211,5.0,8.0,97,0.00,,,0.06,0.000000,,2013-01-16 10:33:00,
2013-01-16 05:43:00,60.0,59.0,-100.00,SSW,211,5.0,8.0,97,0.00,,,0.06,0.000000,,2013-01-16 10:43:00,
2013-01-16 05:53:00,60.0,59.0,-100.00,SSW,211,5.0,8.0,97,0.00,,,0.06,0.000000,,2013-01-16 10:53:00,
2013-01-16 06:02:00,60.0,59.0,-100.00,SSW,211,5.0,8.0,97,0.00,,,0.06,0.000000,,2013-01-16 11:02:00,
2013-01-16 06:33:00,60.0,59.0,-100.00,SSW,212,5.0,11.0,98,0.00,,,0.06,0.000000,,2013-01-16 11:33:00,
2013-01-16 06:43:00,60.0,59.0,-100.00,SSW,212,5.0,11.0,98,0.00,,,0.06,0.000000,,2013-01-16 11:43:00,
2013-01-16 06:53:00,60.0,59.0,-100.00,SSW,212,5.0,11.0,98,0.00,,,0.06,0.000000,,2013-01-16 11:53:00,
2013-01-16 07:03:00,60.0,59.0,-100.00,SSW,212,5.0,11.0,98,0.00,,,0.06,0.000000,,2013-01-16 12:03:00,
2013-01-16 07:33:00,61.0,60.0,-100.00,SW,222,6.0,12.0,97,0.00,,,0.05,0.000000,,2013-01-16 12:33:00,
2013-01-16 07:43:00,61.0,60.0,-100.00,SW,222,6.0,12.0,97,0.00,,,0.05,0.000000,,2013-01-16 12:43:00,
2013-01-16 07:53:00,61.0,60.0,-100.00,SW,222,6.0,12.0,97,0.00,,,0.05,0.000000,,2013-01-16 12:53:00,
2013-01-16 08:03:00,61.0,60.0,-100.00,SW,222,6.0,12.0,97,0.00,,,0.05,0.000000,,2013-01-16 13:03:00,
2013-01-16 08:33:00,63.0,62.0,-100.00,SSW,209,7.0,11.0,95,0.00,,,0.05,20.000000,,2013-01-16 13:33:00,
2013-01-16 08:43:00,63.0,62.0,-100.00,SSW,209,7.0,11.0,95,0.00,,,0.05,20.000000,,2013-01-16 13:43:00,
2013-01-16 08:53:00,63.0,62.0,-100.00,SSW,209,7.0,11.0,95,0.00,,,0.05,20.000000,,2013-01-16 13:53:00,
2013-01-16 09:03:00,63.0,62.0,-100.00,SSW,209,7.0,11.0,95,0.00,,,0.05,20.000000,,2013-01-16 14:03:00,
2013-01-16 09:33:00,66.0,63.0,-100.00,SW,214,7.0,13.0,90,0.00,,,0.05,194.000000,,2013-01-16 14:33:00,
2013-01-16 09:43:00,66.0,63.0,-100.00,SW,214,7.0,13.0,90,0.00,,,0.05,194.000000,,2013-01-16 14:43:00,
2013-01-16 09:53:00,66.0,63.0,-100.00,SW,214,7.0,13.0,90,0.00,,,0.05,194.000000,,2013-01-16 14:53:00,
2013-01-16 10:03:00,66.0,63.0,-100.00,SW,214,7.0,13.0,90,0.00,,,0.05,194.000000,,2013-01-16 15:03:00,
2013-01-16 10:33:00,67.0,63.0,-100.00,SW,227,9.0,15.0,86,0.00,,,0.05,409.000000,,2013-01-16 15:33:00,
2013-01-16 10:43:00,67.0,63.0,-100.00,SW,227,9.0,15.0,86,0.00,,,0.05,409.000000,,2013-01-16 15:43:00,
2013-01-16 10:53:00,67.0,63.0,-100.00,SW,227,9.0,15.0,86,0.00,,,0.05,409.000000,,2013-01-16 15:53:00,
2013-01-16 11:04:00,67.0,63.0,-100.00,SW,227,9.0,15.0,86,0.00,,,0.05,409.000000,,2013-01-16 16:04:00,
2013-01-16 11:33:00,70.0,64.0,-100.00,SW,220,9.0,14.0,82,0.00,,,0.05,522.000000,,2013-01-16 16:33:00,
2013-01-16 11:43:00,70.0,64.0,-100.00,SW,220,9.0,14.0,82,0.00,,,0.05,522.000000,,2013-01-16 16:43:00,
2013-01-16 11:53:00,70.0,64.0,-100.00,SW,220,9.0,14.0,82,0.00,,,0.05,522.000000,,2013-01-16 16:53:00,
2013-01-16 12:03:00,70.0,64.0,-100.00,SW,220,9.0,14.0,82,0.00,,,0.05,522.000000,,2013-01-16 17:03:00,
2013-01-16 12:33:00,69.0,64.0,-100.00,SSW,205,8.0,17.0,83,0.00,,,0.05,544.000000,,2013-01-16 17:33:00,
2013-01-16 12:44:00,69.0,64.0,-100.00,SSW,205,8.0,17.0,83,0.00,,,0.05,544.000000,,2013-01-16 17:44:00,
2013-01-16 12:53:00,69.0,64.0,-100.00,SSW,205,8.0,17.0,83,0.00,,,0.05,544.000000,,2013-01-16 17:53:00,
2013-01-16 13:03:00,69.0,64.0,-100.00,SSW,205,8.0,17.0,83,0.00,,,0.05,544.000000,,2013-01-16 18:03:00,
2013-01-16 13:33:00,68.0,63.0,-100.00,SW,216,8.0,15.0,83,0.00,,,0.05,559.000000,,2013-01-16 18:33:00,
2013-01-16 13:43:00,68.0,63.0,-100.00,SW,216,8.0,15.0,83,0.00,,,0.05,559.000000,,2013-01-16 18:43:00,
2013-01-16 13:53:00,68.0,63.0,-100.00,SW,216,8.0,15.0,83,0.00,,,0.05,559.000000,,2013-01-16 18:53:00,
2013-01-16 14:03:00,68.0,63.0,-100.00,SW,216,8.0,15.0,83,0.00,,,0.05,559.000000,,2013-01-16 19:03:00,
2013-01-16 14:33:00,70.0,62.0,-100.00,SW,228,12.0,21.0,75,0.00,,,0.05,510.000000,,2013-01-16 19:33:00,
2013-01-16 14:43:00,70.0,62.0,-100.00,SW,228,12.0,21.0,75,0.00,,,0.05,510.000000,,2013-01-16 19:43:00,
2013-01-16 14:53:00,70.0,62.0,-100.00,SW,228,12.0,21.0,75,0.00,,,0.05,510.000000,,2013-01-16 19:53:00,
2013-01-16 15:03:00,70.0,62.0,-100.00,SW,228,12.0,21.0,75,0.00,,,0.05,510.000000,,2013-01-16 20:03:00,
2013-01-16 15:33:00,71.0,62.0,-100.00,SW,223,9.0,20.0,72,0.00,,,0.05,448.000000,,2013-01-16 20:33:00,
2013-01-16 15:43:00,71.0,62.0,-100.00,SW,223,9.0,20.0,72,0.00,,,0.05,448.000000,,2013-01-16 20:43:00,
2013-01-16 15:53:00,71.0,62.0,-100.00,SW,223,9.0,20.0,72,0.00,,,0.05,448.000000,,2013-01-16 20:53:00,
2013-01-16 16:03:00,71.0,62.0,-100.00,SW,223,9.0,20.0,72,0.00,,,0.05,448.000000,,2013-01-16 21:03:00,
2013-01-16 16:33:00,67.0,60.0,-100.00,SSW,213,10.0,17.0,79,0.00,,,0.05,313.000000,,2013-01-16 21:33:00,
2013-01-16 16:43:00,67.0,60.0,-100.00,SSW,213,10.0,17.0,79,0.00,,,0.05,313.000000,,2013-01-16 21:43:00,
2013-01-16 16:53:00,67.0,60.0,-100.00,SSW,213,10.0,17.0,79,0.00,,,0.05,313.000000,,2013-01-16 21:53:00,
2013-01-16 17:03:00,67.0,60.0,-100.00,SSW,213,10.0,17.0,79,0.00,,,0.05,313.000000,,2013-01-16 22:03:00,
2013-01-16 17:33:00,64.0,60.0,-100.00,SW,221,9.0,16.0,87,0.00,,,0.05,125.000000,,2013-01-16 22:33:00,
2013-01-16 17:43:00,64.0,60.0,-100.00,SW,221,9.0,16.0,87,0.00,,,0.05,125.000000,,2013-01-16 22:43:00,
2013-01-16 17:53:00,64.0,60.0,-100.00,SW,221,9.0,16.0,87,0.00,,,0.05,125.000000,,2013-01-16 22:53:00,
2013-01-16 18:03:00,64.0,60.0,-100.00,SW,221,9.0,16.0,87,0.00,,,0.05,125.000000,,2013-01-16 23:03:00,
2013-01-16 18:33:00,63.0,60.0,-100.00,WSW,256,5.0,15.0,91,0.00,,,0.05,5.000000,,2013-01-16 23:33:00,
2013-01-16 18:43:00,63.0,60.0,-100.00,WSW,256,5.0,15.0,91,0.00,,,0.05,5.000000,,2013-01-16 23:43:00,
2013-01-16 18:53:00,63.0,60.0,-100.00,WSW,256,5.0,15.0,91,0.00,,,0.05,5.000000,,2013-01-16 23:53:00,
2013-01-16 19:02:00,63.0,60.0,-100.00,WSW,256,5.0,15.0,91,0.00,,,0.05,5.000000,,2013-01-17 00:02:00,
2013-01-16 19:33:00,61.0,59.0,-100.00,North,10,5.0,7.0,92,0.00,,,0.05,0.000000,,2013-01-17 00:33:00,
2013-01-16 19:42:00,61.0,59.0,-100.00,North,10,5.0,7.0,92,0.00,,,0.05,0.000000,,2013-01-17 00:42:00,
2013-01-16 19:53:00,61.0,59.0,-100.00,North,10,5.0,7.0,92,0.00,,,0.05,0.000000,,2013-01-17 00:53:00,
2013-01-16 20:02:00,61.0,59.0,-100.00,North,10,5.0,7.0,92,0.00,,,0.05,0.000000,,2013-01-17 01:02:00,
2013-01-16 20:33:00,58.0,55.0,-100.00,ENE,78,3.0,9.0,91,0.00,,,0.05,0.000000,,2013-01-17 01:33:00,
2013-01-16 20:43:00,58.0,55.0,-100.00,ENE,78,3.0,9.0,91,0.00,,,0.05,0.000000,,2013-01-17 01:43:00,
2013-01-16 20:53:00,58.0,55.0,-100.00,ENE,78,3.0,9.0,91,0.00,,,0.05,0.000000,,2013-01-17 01:53:00,
2013-01-16 21:02:00,58.0,55.0,-100.00,ENE,78,3.0,9.0,91,0.00,,,0.05,0.000000,,2013-01-17 02:02:00,
2013-01-16 21:32:00,56.0,54.0,-100.00,East,97,1.0,4.0,94,0.00,,,0.05,0.000000,,2013-01-17 02:32:00,
2013-01-16 21:43:00,56.0,54.0,-100.00,East,97,1.0,4.0,94,0.00,,,0.05,0.000000,,2013-01-17 02:43:00,
2013-01-16 21:52:00,56.0,54.0,-100.00,East,97,1.0,4.0,94,0.00,,,0.05,0.000000,,2013-01-17 02:52:00,
2013-01-16 22:03:00,56.0,54.0,-100.00,East,97,1.0,4.0,94,0.00,,,0.05,0.000000,,2013-01-17 03:03:00,
2013-01-16 22:33:00,54.0,53.0,-100.00,NE,39,0.0,4.0,95,0.00,,,0.01,0.000000,,2013-01-17 03:33:00,
2013-01-16 22:43:00,54.0,53.0,-100.00,NE,39,0.0,4.0,95,0.00,,,0.01,0.000000,,2013-01-17 03:43:00,
2013-01-16 22:53:00,54.0,53.0,-100.00,NE,39,0.0,4.0,95,0.00,,,0.01,0.000000,,2013-01-17 03:53:00,
2013-01-16 23:02:00,54.0,53.0,-100.00,NE,39,0.0,4.0,95,0.00,,,0.01,0.000000,,2013-01-17 04:02:00,
2013-01-16 23:05:00,53.0,52.0,-100.00,NW,323,1.0,2.0,96,0.00,,,0.01,0.000000,,2013-01-17 04:05:00,
2013-01-16 23:33:00,53.0,52.0,-100.00,NW,323,1.0,2.0,96,0.00,,,0.01,0.000000,,2013-01-17 04:33:00,
2013-01-16 23:43:00,53.0,52.0,-100.00,NW,323,1.0,2.0,96,0.00,,,0.01,0.000000,,2013-01-17 04:43:00,
2013-01-16 23:53:00,53.0,52.0,-100.00,NW,323,1.0,2.0,96,0.00,,,0.01,0.000000,,2013-01-17 04:53:00,